Pagina principală
METAR-TAF:

METAR-TAF

Aeroporturi :

Elkhart-Morton County Airport

Elkhart, Kansas, Statele Unite ale Americii

Latitudine: 37-00N, longitudine: 101-54W, elevație: 1099 m

Observații meteo curente

Raportul a fost făcut în urmă cu 22 de minute, la 22:55 UTC
Vânt 11 kt de la Est/Sud-est
Temperatură 25°C
Umiditate 54%
Presiune 1019 hPa
Vizibilitate: 16.1 km
Total acoperit la o înălțime de 4100 picior

METAR: KEHA 282255Z AUTO 12011KT 10SM OVC041 25/15 A3010 RMK AO2 T02450153

Ora: 18:17 (23:17 UTC)


TAF: lipsă

Observații și prognoze meteo pentru peste 4.000 de aeroporturi (rapoarte METAR și TAF).

Stațiile disponibile sunt reprezentate pe hartă prin puncte galbene și roșii.

Țineți indicatorul mouse-ului pe punctul dorit pentru a vedea denumirea stației.

Apoi, faceți clic pentru a vedea observațiile și prognozele meteorologice.

Pentru a schimba harta: Pentru mărire, faceți clic pe butoanele verzi cu cruce neagră; pentru micșorare, pe butonul verde cu o liniuță; pentru hărți învecinate, pe săgețile verzi.


METAR-TAF: